Tracking 27188 objects as of 1-Apr-2023
HD Live streaming from Space Station
objects crossing your sky now

COSMOS 1470

Track COSMOS 1470 now!
10-day predictions
COSMOS 1470 is classified as:


NORAD ID: 14147
Int'l Code: 1983-061A
Perigee: 517.0 km
Apogee: 537.5 km
Inclination: 82.5 °
Period: 95.0 minutes
Semi major axis: 6898 km
RCS: 8.3388 m2 (large)
Launch date: June 23, 1983
Source: Commonwealth of Independent States (former USSR) (CIS)
Launch site: PLESETSK MISSILE AND SPACE COMPLEX (PKMTR)
Your satellite tracking list
Your tracking list is empty




NASA's NSSDC Master Catalog

Two Line Element Set (TLE):
1 14147U 83061A   23091.52645186  .00006890  00000-0  36355-3 0  9995
2 14147  82.4791 119.3182 0014836 175.4484 184.6886 15.15288470923950
Source of the keplerian elements: AFSPC